Hourly Data Report for May 14, 2021

TOBERMORY RCS
ONTARIO
Current Station Operator: ECCC - MSC

45°14'00.000" N
81°38'00.000" W
213.50 m
6128330
71767
TTR

Download Data

Hourly Data (May 2021)
Hourly Data Report for May 14, 2021
TIME
LST
Temp Definition
°C
Dew Point Definition
°C
Rel Hum Definition
%
Precip. Amount Definition
mm

Wind Dir Definition
10's deg

Wind Spd Definition
km/h
Visibility Definition
km
Stn Press Definition
kPa
Hmdx Definition


Wind Chill Definition


Weather Definition


00:00 1.7 0.1 89 0.0 22 6   99.91     LegendNANA
01:00 2.6 0.8 88 0.0 19 2   99.92     LegendNANA
02:00 5.0 2.2 82 0.0 19 7   99.90     LegendNANA
03:00 2.2 0.7 90 0.0 22 5   99.91     LegendNANA
04:00 1.5 0.5 93 0.0 21 5   99.93     LegendNANA
05:00 0.7 0.2 97 0.0 23 5   99.92     LegendNANA
06:00 3.1 2.2 94 0.0 20 5   99.96     LegendNANA
07:00 8.9 2.2 63 0.0 22 5   99.98     LegendNANA
08:00 11.9 -0.5 42 0.0 22 8   99.99     LegendNANA
09:00 13.0 -0.5 40 0.0 23 9   99.97     LegendNANA
10:00 13.8 2.0 45 0.0 19 8   99.97     LegendNANA
11:00 13.5 2.2 46 0.0 22 9   99.96     LegendNANA
12:00 14.2 4.0 50 0.0 22 10   99.91     LegendNANA
13:00 15.4 2.4 41 0.0 22 10   99.86     LegendNANA
14:00 15.7 0.0 34 0.0 18 11   99.84     LegendNANA
15:00 16.1 0.7 35 0.0 22 12   99.80     LegendNANA
16:00 16.0 -3.1 27 0.0 22 10   99.74     LegendNANA
17:00 15.2 -0.9 33 0.0 22 9   99.74     LegendNANA
18:00 12.8 -0.5 40 0.0 23 11   99.72     LegendNANA
19:00 11.1 -0.6 44 0.0 20 6   99.71     LegendNANA
20:00 9.0 0.6 55 0.0 21 6   99.71     LegendNANA
21:00 7.5 2.0 68 0.0 19 6   99.73     LegendNANA
22:00 7.2 3.0 75 0.0 18 6   99.72     LegendNANA
23:00 7.3 3.6 77 0.0 20 6   99.72     LegendNANA

Notes on Data Quality.

Legend

  • E = Estimated
  • M = Missing
  • NA = Not Available*
  • [empty] = Indicates an unobserved value
Date modified: